M I D A S
Marine Information and Data Acquisition System
Tripno 1282 of the Zeeleeuw from 2007-06-01 07:08:00 to 2007-06-01 14:50:19
Back to CruiseResearch ActivitiesStationsMapUnderway DataData graphs

EquipmentUnitsComment
TimeDGPSUTC
LatitudeDGPSDM.mWGS84
LongitudeDGPSDM.mWGS84
TemperatureSBE03/SBE38deg celciusITS90
ConductivitySBE21S/mITS90
SalinitySBE21 Practical Salinity Units
ChlorophylAChelsea fluorimeterg/lCalibrated in Aceton
Missing or incorrect values are displayed as -999
Sea surface data collected by the RV Zeeleeuw from 2007-06-01 06:37:52 to 2007-06-01 14:59:49
Time Latitude Longitude Temperature Conductivity Salinity ChlorophylA
2007-06-01 06:38:57 51°13.595 2°56.095 19.726 0.067148 0.357361 -2.871232
2007-06-01 06:39:57 51°13.596 2°56.095 19.7291 0.067148 0.357381 -2.871232
2007-06-01 06:40:57 51°13.597 2°56.094 19.7267 0.067148 0.357402 -2.871232
2007-06-01 06:41:57 51°13.597 2°56.094 19.724 0.067148 0.357429 -2.871232
2007-06-01 06:42:57 51°13.597 2°56.095 19.7234 0.067148 0.357449 -2.871232
2007-06-01 06:43:57 51°13.597 2°56.094 19.7213 0.067148 0.357477 -2.871232
2007-06-01 06:44:57 51°13.598 2°56.094 19.7289 0.067148 0.357497 -2.871232
2007-06-01 06:45:57 51°13.599 2°56.094 19.7389 0.067148 0.357524 -2.871232
2007-06-01 06:46:57 51°13.599 2°56.094 19.7492 0.067148 0.357545 -2.871232
2007-06-01 06:47:57 51°13.598 2°56.095 19.7407 0.067148 0.357572 -2.871232
2007-06-01 06:48:57 51°13.599 2°56.094 19.7455 0.067148 0.357592 -2.871232
2007-06-01 06:49:57 51°13.599 2°56.094 19.7498 0.067148 0.35762 -2.871232
2007-06-01 06:50:57 51°13.599 2°56.094 19.7561 0.067148 0.357647 -2.871232
2007-06-01 06:51:57 51°13.599 2°56.094 19.756 0.067045 0.357102 -2.871232
2007-06-01 06:52:57 51°13.599 2°56.094 19.7604 0.067148 0.357695 -2.871232
2007-06-01 06:53:57 51°13.598 2°56.094 19.7686 0.067148 0.357715 -2.871232
2007-06-01 06:54:57 51°13.596 2°56.094 19.7766 0.067148 0.357742 -2.871232
2007-06-01 06:55:57 51°13.597 2°56.095 19.7721 0.067045 0.357204 -2.871232
2007-06-01 06:56:57 51°13.6 2°56.081 19.7439 0.067045 0.357225 -2.871232
2007-06-01 06:57:57 51°13.627 2°55.987 19.7899 0.067148 0.35781 -2.871232
2007-06-01 06:58:57 51°13.671 2°55.87 19.7988 0.067148 0.357845 -2.871232
2007-06-01 06:59:57 51°13.737 2°55.745 19.8177 0.067045 0.3573 -2.871232
2007-06-01 07:00:57 51°13.825 2°55.647 19.8437 0.067045 0.357334 -2.871232
2007-06-01 07:01:57 51°13.917 2°55.638 19.8106 0.067045 0.357354 -2.871232
2007-06-01 07:02:57 51°13.956 2°55.662 19.802 0.067045 0.357286 -2.871232
2007-06-01 07:03:57 51°13.993 2°55.542 19.7528 0.067045 0.357484 -2.871232
2007-06-01 07:04:57 51°14.085 2°55.457 19.8044 0.067045 0.357409 -2.871232
2007-06-01 07:05:57 51°14.192 2°55.371 19.8167 0.067045 0.357436 -2.871232
2007-06-01 07:06:57 51°14.317 2°55.172 19.7158 0.067045 0.357463 -2.871232
2007-06-01 07:07:57 51°14.454 2°54.915 19.6696 0.067045 0.357477 -2.871232
2007-06-01 07:08:57 51°14.627 2°54.707 19.6837 0.067045 0.35749 -2.871232
2007-06-01 07:09:57 51°14.804 2°54.504 19.6884 0.067045 0.357531 -2.871232
2007-06-01 07:10:57 51°14.982 2°54.309 19.6606 0.067045 0.357552 -2.871232
2007-06-01 07:11:57 51°15.143 2°54.09 19.6419 0.067045 0.357565 -2.871232
2007-06-01 07:12:57 51°15.33 2°53.927 19.6621 0.067045 0.357606 -2.871232
2007-06-01 07:13:57 51°15.505 2°53.715 19.6604 0.067045 0.35762 -2.871232
2007-06-01 07:14:57 51°15.686 2°53.518 19.6383 0.067045 0.357647 -2.871232
2007-06-01 07:15:57 51°15.869 2°53.331 19.681 0.067045 0.357668 -2.871232
2007-06-01 07:16:57 51°16.054 2°53.152 19.6544 0.067045 0.357681 -2.871232
2007-06-01 07:17:57 51°16.245 2°52.996 19.6419 0.067045 0.357709 -2.871232
2007-06-01 07:18:57 51°16.439 2°52.86 19.6556 0.067045 0.357722 -2.871232
2007-06-01 07:19:57 51°16.638 2°52.743 19.6792 0.067045 0.35775 -2.871232
2007-06-01 07:20:57 51°16.833 2°52.628 19.7017 0.066942 0.357211 -2.871232
2007-06-01 07:21:57 51°17.027 2°52.514 19.6989 0.067045 0.357784 -2.871232
2007-06-01 07:22:57 51°17.219 2°52.393 19.7097 0.066942 0.357238 -2.871232
2007-06-01 07:23:57 51°17.399 2°52.222 19.7087 0.066942 0.357259 -2.871232
2007-06-01 07:24:57 51°17.528 2°51.949 19.7052 0.066942 0.357279 -2.871232
2007-06-01 07:25:57 51°17.643 2°51.655 19.6924 0.066942 0.357286 -2.871232
2007-06-01 07:26:57 51°17.754 2°51.356 19.7022 0.066942 0.357313 -2.871232
2007-06-01 07:27:57 51°17.849 2°51.032 19.7134 0.066942 0.357327 -2.871232
2007-06-01 07:28:57 51°17.944 2°50.703 19.7325 0.066942 0.357347 -2.871232
2007-06-01 07:29:57 51°18.038 2°50.375 19.711 0.066942 0.357368 -2.871232
2007-06-01 07:30:57 51°18.133 2°50.047 19.7445 0.066942 0.357382 -2.871232
2007-06-01 07:31:57 51°18.227 2°49.718 19.7531 0.066942 0.357402 -2.871232
2007-06-01 07:32:57 51°18.32 2°49.392 19.7672 0.066942 0.357416 -2.871232
2007-06-01 07:33:57 51°18.413 2°49.064 19.742 0.066942 0.357429 -2.871232
2007-06-01 07:34:57 51°18.508 2°48.733 19.7565 0.066942 0.35745 -2.871232
2007-06-01 07:35:57 51°18.605 2°48.4 19.782 0.066942 0.357463 -2.871232
2007-06-01 07:36:57 51°18.702 2°48.067 19.7929 0.066942 0.357484 -2.871232
2007-06-01 07:37:57 51°18.796 2°47.732 19.7805 0.066942 0.357504 -2.871232
2007-06-01 07:38:57 51°18.89 2°47.397 19.8016 0.066942 0.357518 -2.871232
2007-06-01 07:39:57 51°18.983 2°47.06 19.7907 0.066942 0.357532 -2.871232
2007-06-01 07:40:57 51°19.076 2°46.717 19.8087 0.066942 0.357552 -2.871232
2007-06-01 07:41:57 51°19.17 2°46.372 19.8223 0.066942 0.357566 -2.871232
2007-06-01 07:42:57 51°19.264 2°46.026 19.8357 0.066942 0.357587 -2.871232
2007-06-01 07:43:57 51°19.358 2°45.683 19.842 0.066942 0.3576 -2.871232
2007-06-01 07:44:57 51°19.455 2°45.346 19.8421 0.066942 0.357614 -2.871232
2007-06-01 07:45:57 51°19.556 2°45.007 19.8573 0.066942 0.357634 -2.871232
2007-06-01 07:46:57 51°19.653 2°44.669 19.8615 0.066942 0.357648 -2.871232
2007-06-01 07:47:57 51°19.749 2°44.332 19.8811 0.066942 0.357669 -2.871232
2007-06-01 07:48:57 51°19.843 2°43.991 19.8783 0.066942 0.357682 -2.871232
2007-06-01 07:49:57 51°19.938 2°43.648 19.894 0.066942 0.357696 -2.871232
2007-06-01 07:50:57 51°20.032 2°43.304 19.9124 0.066942 0.35771 -2.871232
2007-06-01 07:51:57 51°20.126 2°42.96 19.9023 0.066942 0.35773 -2.871232
2007-06-01 07:52:57 51°20.219 2°42.616 19.9132 0.066839 0.357177 -2.871232
2007-06-01 07:53:57 51°20.313 2°42.274 19.9306 0.066839 0.357191 -2.871232
2007-06-01 07:54:57 51°20.41 2°41.935 19.9336 0.066839 0.357204 -2.871232
2007-06-01 07:55:57 51°20.508 2°41.599 19.941 0.066839 0.357225 -2.871232
2007-06-01 07:56:57 51°20.603 2°41.264 19.9523 0.066942 0.357805 -2.871232
2007-06-01 07:57:57 51°20.672 2°40.909 19.9562 0.066839 0.357259 -2.871232
2007-06-01 07:58:57 51°20.706 2°40.536 19.9665 0.066942 0.357833 -2.871232
2007-06-01 07:59:57 51°20.739 2°40.164 19.9874 0.066839 0.357279 -2.871232
2007-06-01 08:00:57 51°20.772 2°39.793 19.973 0.066942 0.35786 -2.871232
2007-06-01 08:01:57 51°20.8 2°39.418 19.9955 0.066839 0.357314 -2.871232
2007-06-01 08:02:57 51°20.813 2°39.039 20.0034 0.066839 0.35732 -2.871232
2007-06-01 08:03:57 51°20.83 2°38.658 20.015 0.066942 0.357901 -2.871232
2007-06-01 08:04:57 51°20.85 2°38.278 20.0228 0.066839 0.357348 -2.871232
2007-06-01 08:05:57 51°20.869 2°37.9 20.0391 0.066839 0.357361 -2.871232
2007-06-01 08:06:57 51°20.887 2°37.52 20.0358 0.066839 0.357375 -2.871232
2007-06-01 08:07:57 51°20.906 2°37.139 20.0569 0.066839 0.357389 -2.871232
2007-06-01 08:08:57 51°20.926 2°36.757 20.0673 0.066839 0.357402 -2.871232
2007-06-01 08:09:57 51°20.948 2°36.374 20.0775 0.066839 0.357416 -2.871232
2007-06-01 08:10:57 51°20.969 2°35.989 20.0753 0.066839 0.35743 -2.871232
2007-06-01 08:11:57 51°20.991 2°35.603 20.0965 0.066839 0.357444 -2.871232
2007-06-01 08:12:57 51°21.012 2°35.217 20.0826 0.066839 0.357457 -2.871232
2007-06-01 08:13:57 51°21.033 2°34.826 20.1156 0.066839 0.357471 -2.871232
2007-06-01 08:14:57 51°21.101 2°34.46 20.122 0.066839 0.357478 -2.871232
2007-06-01 08:15:57 51°21.233 2°34.148 20.118 0.066839 0.357498 -2.871232
2007-06-01 08:16:57 51°21.375 2°33.851 20.1301 0.066839 0.357512 -2.871232
2007-06-01 08:17:57 51°21.517 2°33.563 20.1283 0.066839 0.357519 -2.871232
2007-06-01 08:18:57 51°21.68 2°33.334 20.1461 0.066839 0.357533 -2.871232
2007-06-01 08:19:57 51°21.872 2°33.198 20.1545 0.066839 0.357539 -2.871232
2007-06-01 08:20:57 51°22.066 2°33.074 20.1738 0.066839 0.357567 -2.871232
2007-06-01 08:21:57 51°22.261 2°32.958 20.1755 0.066839 0.357574 -2.871232
2007-06-01 08:22:57 51°22.451 2°32.814 20.1807 0.066839 0.357594 -2.871232
2007-06-01 08:23:57 51°22.6 2°32.548 20.2055 0.066839 0.357594 -2.871232
2007-06-01 08:24:57 51°22.65 2°32.177 20.2116 0.066839 0.357615 -2.871232
2007-06-01 08:25:57 51°22.643 2°31.776 20.212 0.066839 0.357622 -2.871232
2007-06-01 08:26:57 51°22.641 2°31.373 20.2201 0.066839 0.357622 -2.871232
2007-06-01 08:27:57 51°22.644 2°30.971 20.224 0.066839 0.357642 -2.871232
2007-06-01 08:28:57 51°22.643 2°30.57 20.2345 0.066839 0.357649 -2.871232
2007-06-01 08:29:57 51°22.636 2°30.168 20.2386 0.066839 0.357663 -2.871232
2007-06-01 08:30:57 51°22.629 2°29.768 20.2602 0.066839 0.357676 -2.871232
2007-06-01 08:31:57 51°22.622 2°29.37 20.2649 0.066839 0.357683 -2.871232
2007-06-01 08:32:57 51°22.617 2°28.97 20.274 0.066839 0.357697 -2.871232
2007-06-01 08:33:57 51°22.602 2°28.568 20.278 0.066839 0.357704 -2.871232
2007-06-01 08:34:57 51°22.584 2°28.165 20.2939 0.066839 0.357718 -2.871232
2007-06-01 08:35:57 51°22.567 2°27.761 20.2932 0.066839 0.357731 -2.871232
2007-06-01 08:36:57 51°22.55 2°27.357 20.3142 0.066839 0.357738 -2.871232
2007-06-01 08:37:57 51°22.532 2°26.952 20.3243 0.066839 0.357745 -2.871232
2007-06-01 08:38:57 51°22.516 2°26.547 20.3331 0.066839 0.357752 -2.871232
2007-06-01 08:39:57 51°22.496 2°26.145 20.3503 0.066839 0.357766 -2.871232
2007-06-01 08:40:57 51°22.489 2°25.746 20.3401 0.066839 0.357779 -2.871232
2007-06-01 08:41:57 51°22.579 2°25.406 20.3498 0.066839 0.357786 -2.871232
2007-06-01 08:42:57 51°22.758 2°25.222 20.3692 0.066736 0.357225 -2.871232
2007-06-01 08:43:57 51°22.96 2°25.203 20.3681 0.066839 0.357807 -2.871232
2007-06-01 08:44:57 51°23.16 2°25.243 20.3896 0.066736 0.357239 -2.871232
2007-06-01 08:45:57 51°23.357 2°25.297 20.4009 0.066839 0.35782 -2.871232
2007-06-01 08:46:57 51°23.556 2°25.347 20.4044 0.066839 0.357827 -2.871232
2007-06-01 08:47:57 51°23.753 2°25.407 20.417 0.066839 0.357834 -2.871232
2007-06-01 08:48:57 51°23.951 2°25.464 20.4223 0.066736 0.357273 -2.871232
2007-06-01 08:49:57 51°24.149 2°25.519 20.4351 0.066839 0.357848 -2.871232
2007-06-01 08:50:57 51°24.346 2°25.572 20.4416 0.066736 0.357287 -2.871232
2007-06-01 08:51:57 51°24.542 2°25.625 20.4473 0.066839 0.357862 -2.871232
2007-06-01 08:52:57 51°24.738 2°25.676 20.4554 0.066736 0.3573 -2.871232
2007-06-01 08:53:57 51°24.934 2°25.727 20.4624 0.066736 0.357307 -2.871232
2007-06-01 08:54:57 51°25.129 2°25.776 20.4625 0.066839 0.357882 -2.871232
2007-06-01 08:55:57 51°25.321 2°25.841 20.4695 0.066839 0.357889 -2.871232
2007-06-01 08:56:57 51°25.513 2°25.91 20.4799 0.066736 0.357328 -2.871232
2007-06-01 08:57:57 51°25.704 2°25.979 20.4958 0.066736 0.357335 -2.871232
2007-06-01 08:58:57 51°25.893 2°26.047 20.5056 0.066839 0.35791 -2.871232
2007-06-01 08:59:57 51°26.082 2°26.121 20.5175 0.066736 0.357348 -2.871232
2007-06-01 09:00:57 51°26.274 2°26.178 20.5241 0.066839 0.357923 -2.871232
2007-06-01 09:01:57 51°26.468 2°26.233 20.5172 0.066839 0.35793 -2.871232
2007-06-01 09:02:57 51°26.66 2°26.289 20.5495 0.066736 0.357362 -2.871232
2007-06-01 09:03:57 51°26.853 2°26.343 20.5434 0.066736 0.357369 -2.871232
2007-06-01 09:04:57 51°27.046 2°26.4 20.5378 0.066839 0.357951 -2.871232
2007-06-01 09:05:57 51°27.24 2°26.458 20.5602 0.066736 0.357383 -2.871232
2007-06-01 09:06:57 51°27.434 2°26.517 20.5579 0.066736 0.357383 -2.871232
2007-06-01 09:07:57 51°27.628 2°26.578 20.5905 0.066736 0.357389 -2.871232
2007-06-01 09:08:57 51°27.823 2°26.64 20.5731 0.066839 0.357965 -2.871232
2007-06-01 09:09:57 51°28.018 2°26.701 20.5763 0.066839 0.357965 -2.871232
2007-06-01 09:10:57 51°28.214 2°26.765 20.5857 0.066736 0.357403 -2.871232
2007-06-01 09:11:57 51°28.41 2°26.83 20.6115 0.066839 0.357971 -2.871232
2007-06-01 09:12:57 51°28.607 2°26.894 20.6137 0.066736 0.35741 -2.871232
2007-06-01 09:13:57 51°28.802 2°26.833 20.5937 0.066839 0.357992 -2.871232
2007-06-01 09:14:57 51°28.937 2°26.577 20.6346 0.066736 0.357431 -2.871232
2007-06-01 09:15:57 51°29 2°26.231 20.6345 0.066839 0.357978 -2.871232
2007-06-01 09:16:57 51°29.066 2°25.886 20.6509 0.066736 0.357417 -2.871232
2007-06-01 09:17:57 51°29.134 2°25.545 20.6474 0.066736 0.357431 -2.871232
2007-06-01 09:18:57 51°29.206 2°25.208 20.6531 0.066736 0.357431 -2.871232
2007-06-01 09:19:57 51°29.282 2°24.875 20.6777 0.066736 0.357437 -2.871232
2007-06-01 09:20:57 51°29.355 2°24.539 20.6902 0.066736 0.357437 -2.871232
2007-06-01 09:21:57 51°29.429 2°24.199 20.6673 0.066736 0.357444 -2.871232
2007-06-01 09:22:57 51°29.533 2°23.89 20.6849 0.066736 0.357444 -2.871232
2007-06-01 09:23:57 51°29.713 2°23.771 20.6671 0.066736 0.357458 -2.871232
2007-06-01 09:24:57 51°29.873 2°23.921 20.7166 0.066736 0.357451 -2.871232
2007-06-01 09:25:57 51°30.011 2°24.132 20.7285 0.066736 0.357465 -2.871232
2007-06-01 09:26:57 51°30.17 2°24.301 20.7205 0.066736 0.357465 -2.871232
2007-06-01 09:27:57 51°30.335 2°24.461 20.7227 0.066839 0.358033 -2.871232
2007-06-01 09:28:57 51°30.503 2°24.618 20.7138 0.066736 0.357472 -2.871232
2007-06-01 09:29:57 51°30.672 2°24.774 20.7475 0.066736 0.357472 -2.871232
2007-06-01 09:30:57 51°30.841 2°24.927 20.7443 0.066736 0.357479 -2.871232
2007-06-01 09:31:57 51°31.01 2°25.084 20.7444 0.066736 0.357479 -2.871232
2007-06-01 09:32:57 51°31.176 2°25.25 20.7661 0.066736 0.357485 -2.871232
2007-06-01 09:33:57 51°31.342 2°25.417 20.7625 0.066736 0.357485 -2.871232
2007-06-01 09:34:57 51°31.508 2°25.585 20.7683 0.066736 0.357492 -2.871232
2007-06-01 09:35:57 51°31.675 2°25.75 20.7823 0.066736 0.357492 -2.871232
2007-06-01 09:36:57 51°31.841 2°25.915 20.774 0.066736 0.357499 -2.871232
2007-06-01 09:37:57 51°32.01 2°26.08 20.7767 0.066736 0.357499 -2.871232
2007-06-01 09:38:57 51°32.178 2°26.247 20.7983 0.066736 0.357506 -2.871232
2007-06-01 09:39:57 51°32.346 2°26.414 20.8017 0.066736 0.357506 -2.871232
2007-06-01 09:40:57 51°32.516 2°26.579 20.7953 0.066736 0.357506 -2.871232
2007-06-01 09:41:57 51°32.686 2°26.748 20.8202 0.066736 0.357513 -2.871232
2007-06-01 09:42:57 51°32.854 2°26.921 20.8274 0.066736 0.357513 -2.871232
2007-06-01 09:43:57 51°33.025 2°27.089 20.8252 0.066736 0.35752 -2.871232
2007-06-01 09:44:57 51°33.194 2°27.256 20.8342 0.066736 0.35752 -2.871232
2007-06-01 09:45:57 51°33.362 2°27.426 20.843 0.066736 0.35752 -2.871232
2007-06-01 09:46:57 51°33.531 2°27.599 20.8338 0.066736 0.357527 -2.871232
2007-06-01 09:47:57 51°33.699 2°27.776 20.8562 0.066736 0.357527 -2.871232
2007-06-01 09:48:57 51°33.866 2°27.954 20.8619 0.066736 0.357527 -2.871232
2007-06-01 09:49:57 51°34.033 2°28.131 20.868 0.066736 0.357533 -2.871232
2007-06-01 09:50:57 51°34.201 2°28.308 20.8728 0.066736 0.357533 -2.871232
2007-06-01 09:51:57 51°34.367 2°28.484 20.875 0.066839 0.358109 -2.871232
2007-06-01 09:52:57 51°34.534 2°28.664 20.8881 0.066736 0.35754 -2.871232
2007-06-01 09:53:57 51°34.702 2°28.842 20.8828 0.066736 0.35754 -2.871232
2007-06-01 09:54:57 51°34.867 2°29.02 20.8934 0.066736 0.357547 -2.871232
2007-06-01 09:55:57 51°35.036 2°29.186 20.9072 0.066736 0.357547 -2.871232
2007-06-01 09:56:57 51°35.205 2°29.352 20.9063 0.066736 0.357547 -2.871232
2007-06-01 09:57:57 51°35.373 2°29.519 20.8883 0.066839 0.358116 -2.871232
2007-06-01 09:58:57 51°35.543 2°29.685 20.916 0.066736 0.357547 -2.871232
2007-06-01 09:59:57 51°35.711 2°29.855 20.9213 0.066736 0.357554 -2.871232
2007-06-01 10:00:57 51°35.88 2°30.024 20.9344 0.066839 0.358123 -2.871232
2007-06-01 10:01:57 51°36.048 2°30.192 20.9138 0.066736 0.357554 -2.871232
2007-06-01 10:02:57 51°36.216 2°30.362 20.9297 0.066736 0.357554 -2.871232
2007-06-01 10:03:57 51°36.383 2°30.53 20.9227 0.066736 0.357561 -2.871232
2007-06-01 10:04:57 51°36.551 2°30.702 20.9298 0.066736 0.357561 -2.871232
2007-06-01 10:05:57 51°36.718 2°30.873 20.9532 0.066736 0.357561 -2.871232
2007-06-01 10:06:57 51°36.884 2°31.046 20.9584 0.066839 0.358129 -2.871232
2007-06-01 10:07:57 51°37.043 2°31.231 20.9314 0.066736 0.357561 -2.871232
2007-06-01 10:08:57 51°37.152 2°31.499 20.9582 0.066839 0.358136 -2.871232
2007-06-01 10:09:57 51°37.234 2°31.797 20.961 0.066839 0.358143 -2.871232
2007-06-01 10:10:57 51°37.305 2°32.104 20.9815 0.066839 0.358143 -2.871232
2007-06-01 10:11:57 51°37.371 2°32.414 20.9657 0.066736 0.357575 -2.871232
2007-06-01 10:12:57 51°37.442 2°32.724 20.9915 0.066736 0.357575 -2.871232
2007-06-01 10:13:57 51°37.513 2°33.037 20.9705 0.066839 0.358143 -2.871232
2007-06-01 10:14:57 51°37.585 2°33.35 21.0005 0.066736 0.357575 -2.871232
2007-06-01 10:15:57 51°37.659 2°33.664 20.9822 0.066736 0.357575 -2.871232
2007-06-01 10:16:57 51°37.733 2°33.979 20.9924 0.066736 0.357581 -2.871232
2007-06-01 10:17:57 51°37.799 2°34.301 20.9991 0.066736 0.357581 -2.871232
2007-06-01 10:18:57 51°37.862 2°34.626 21.0127 0.066839 0.35815 -2.871232
2007-06-01 10:19:57 51°37.918 2°34.952 21.0022 0.066839 0.358157 -2.871232
2007-06-01 10:20:57 51°37.972 2°35.281 21.0201 0.066839 0.358157 -2.871232
2007-06-01 10:21:57 51°38.023 2°35.609 21.0265 0.066839 0.358157 -2.871232
2007-06-01 10:22:57 51°38.073 2°35.935 21.0379 0.066736 0.357595 -2.871232
2007-06-01 10:23:57 51°38.122 2°36.259 21.0292 0.066839 0.358164 -2.871232
2007-06-01 10:24:57 51°38.171 2°36.584 21.037 0.066736 0.357595 -2.871232
2007-06-01 10:25:57 51°38.221 2°36.909 21.0369 0.066736 0.357602 -2.871232
2007-06-01 10:26:57 51°38.272 2°37.236 21.0422 0.066736 0.357602 -2.871232
2007-06-01 10:27:57 51°38.325 2°37.565 21.0538 0.066736 0.357609 -2.871232
2007-06-01 10:28:57 51°38.377 2°37.894 21.0517 0.066736 0.357609 -2.871232
2007-06-01 10:29:57 51°38.43 2°38.224 21.0541 0.066736 0.357609 -2.871232
2007-06-01 10:30:57 51°38.484 2°38.555 21.065 0.066736 0.357616 -2.871232
2007-06-01 10:31:57 51°38.538 2°38.884 21.0615 0.066839 0.358191 -2.871232
2007-06-01 10:32:57 51°38.592 2°39.213 21.0812 0.066736 0.357623 -2.871232
2007-06-01 10:33:57 51°38.645 2°39.543 21.0857 0.066839 0.358198 -2.871232
2007-06-01 10:34:57 51°38.7 2°39.872 21.0876 0.066736 0.357636 -2.871232
2007-06-01 10:35:57 51°38.752 2°40.188 21.0887 0.066839 0.358219 -2.871232
2007-06-01 10:36:57 51°38.789 2°40.352 13.9623 1.79597 11.085838 -2.871232
2007-06-01 10:37:57 51°38.811 2°40.441 13.6728 4.15867 32.942943 -2.871232
2007-06-01 10:38:57 51°38.819 2°40.541 13.642 4.125071 32.930785 -2.871232
2007-06-01 10:39:57 51°38.813 2°40.748 13.6315 4.119783 32.935999 -2.871232
2007-06-01 10:40:57 51°38.762 2°40.978 13.6393 4.117501 32.938438 -2.871232
2007-06-01 10:41:57 51°38.657 2°41.151 13.6401 4.116153 32.91804 -2.871232
2007-06-01 10:42:57 51°38.566 2°41.179 13.6342 4.116257 32.931888 -2.871232
2007-06-01 10:43:57 51°38.505 2°41.162 13.6105 4.115531 32.942901 -2.871232
2007-06-01 10:44:57 51°38.456 2°41.15 13.6131 4.113768 32.933237 -2.871232
2007-06-01 10:45:57 51°38.407 2°41.146 13.618 4.113768 32.938565 -2.871232
2007-06-01 10:46:57 51°38.353 2°41.146 13.6212 4.112731 32.930058 -2.871232
2007-06-01 10:47:57 51°38.297 2°41.148 13.6161 4.109205 32.897028 -2.871232
2007-06-01 10:48:57 51°38.241 2°41.154 13.6185 4.109724 32.903943 -2.871232
2007-06-01 10:49:57 51°38.184 2°41.16 13.6245 4.112005 32.92357 -2.871232
2007-06-01 10:50:57 51°38.129 2°41.168 13.6248 4.114391 32.942603 -2.871232
2007-06-01 10:51:57 51°38.073 2°41.178 13.6324 4.113665 32.938399 -2.871232
2007-06-01 10:52:57 51°38.017 2°41.19 13.6234 4.113768 32.934759 -2.871232
2007-06-01 10:53:57 51°37.961 2°41.205 13.6299 4.113872 32.940253 -2.871232
2007-06-01 10:54:57 51°37.906 2°41.219 13.63 4.114702 32.944622 -2.871232
2007-06-01 10:55:57 51°37.851 2°41.232 13.6288 4.112213 32.925424 -2.871232
2007-06-01 10:56:57 51°37.797 2°41.248 13.6247 4.114598 32.943696 -2.871232
2007-06-01 10:57:57 51°37.742 2°41.268 13.6317 4.113872 32.943299 -2.871232
2007-06-01 10:58:57 51°37.69 2°41.281 13.6403 4.114287 32.941677 -2.871232
2007-06-01 10:59:57 51°37.636 2°41.293 13.6434 4.114702 32.939294 -2.871232
2007-06-01 11:00:57 51°37.581 2°41.304 13.6399 4.115013 32.939029 -2.871232
2007-06-01 11:01:57 51°37.527 2°41.313 13.6507 4.114494 32.936679 -2.871232
2007-06-01 11:02:57 51°37.474 2°41.321 13.6443 4.115013 32.935224 -2.871232
2007-06-01 11:03:57 51°37.42 2°41.324 13.6461 4.114805 32.934132 -2.871232
2007-06-01 11:04:57 51°37.371 2°41.31 13.6458 4.114287 32.930261 -2.871232
2007-06-01 11:05:57 51°37.33 2°41.28 13.6494 4.114805 32.93185 -2.871232
2007-06-01 11:06:57 51°37.297 2°41.246 13.6489 4.114598 32.931519 -2.871232
2007-06-01 11:07:57 51°37.278 2°41.217 13.6595 4.114287 32.930261 -2.871232
2007-06-01 11:08:57 51°37.276 2°41.178 13.654 4.115635 32.928612 -2.871232
2007-06-01 11:09:57 51°37.28 2°41.156 13.6489 4.114909 32.930494 -2.871232
2007-06-01 11:10:57 51°37.279 2°41.144 13.6565 4.114805 32.930329 -2.871232
2007-06-01 11:11:57 51°37.243 2°41.088 13.6508 4.11522 32.931752 -2.871232
2007-06-01 11:12:57 51°37.182 2°41.189 13.6503 4.114598 32.93304 -2.871232
2007-06-01 11:13:57 51°37.142 2°41.486 13.6554 4.114805 32.931089 -2.871232
2007-06-01 11:14:57 51°37.123 2°41.848 13.6731 4.114909 32.928973 -2.871232
2007-06-01 11:15:57 51°37.19 2°41.993 13.6914 4.115012 32.914695 -2.871232
2007-06-01 11:16:57 51°37.251 2°41.982 13.6874 4.113871 32.890843 -2.871232
2007-06-01 11:17:57 51°37.308 2°41.97 13.6832 4.115738 32.908261 -2.871232
2007-06-01 11:18:57 51°37.364 2°41.992 13.6747 4.114909 32.915289 -2.871232
2007-06-01 11:19:57 51°37.418 2°42.037 13.6734 4.11522 32.916546 -2.871232
2007-06-01 11:20:57 51°37.473 2°42.082 13.6718 4.114805 32.915882 -2.871232
2007-06-01 11:21:57 51°37.528 2°42.124 13.6765 4.115012 32.916974 -2.871232
2007-06-01 11:22:57 51°37.583 2°42.158 13.6713 4.11522 32.916546 -2.871232
2007-06-01 11:23:57 51°37.638 2°42.178 13.6771 4.115323 32.917472 -2.871232
2007-06-01 11:24:57 51°37.692 2°42.207 13.6642 4.115531 32.918564 -2.871232
2007-06-01 11:25:57 51°37.744 2°42.243 13.659 4.11439 32.9213 -2.871232
2007-06-01 11:26:57 51°37.796 2°42.25 13.6644 4.114494 32.922226 -2.871232
2007-06-01 11:27:57 51°37.85 2°42.247 13.6547 4.114805 32.924244 -2.871232
2007-06-01 11:28:57 51°37.906 2°42.249 13.6562 4.114287 32.924176 -2.871232
2007-06-01 11:29:57 51°37.962 2°42.25 13.6558 4.115012 32.926857 -2.871232
2007-06-01 11:30:57 51°38.018 2°42.246 13.6626 4.115013 32.928378 -2.871232
2007-06-01 11:31:57 51°38.073 2°42.237 13.6634 4.115427 32.929041 -2.871232
2007-06-01 11:32:57 51°38.127 2°42.224 13.6598 4.115842 32.932746 -2.871232
2007-06-01 11:33:57 51°38.182 2°42.213 13.6628 4.115842 32.934267 -2.871232
2007-06-01 11:34:57 51°38.239 2°42.213 13.6638 4.116464 32.936021 -2.871232
2007-06-01 11:35:57 51°38.297 2°42.226 13.6649 4.116879 32.938966 -2.871232
2007-06-01 11:36:57 51°38.355 2°42.246 13.6704 4.116983 32.941413 -2.871232
2007-06-01 11:37:57 51°38.41 2°42.262 13.6714 4.117294 32.94267 -2.871232
2007-06-01 11:38:57 51°38.462 2°42.27 13.6693 4.11802 32.944589 -2.871232
2007-06-01 11:39:57 51°38.512 2°42.268 13.6605 4.117501 32.946044 -2.871232
2007-06-01 11:40:57 51°38.56 2°42.26 13.6544 4.117087 32.946904 -2.871232
2007-06-01 11:41:57 51°38.608 2°42.252 13.6602 4.117087 32.948426 -2.871232
2007-06-01 11:42:57 51°38.657 2°42.248 13.6621 4.117398 32.950445 -2.871232
2007-06-01 11:43:57 51°38.708 2°42.252 13.6538 4.117605 32.951536 -2.871232
2007-06-01 11:44:57 51°38.758 2°42.273 13.6515 4.117294 32.953324 -2.871232
2007-06-01 11:45:57 51°38.8 2°42.307 13.6547 4.116983 32.954351 -2.871232
2007-06-01 11:46:57 51°38.833 2°42.351 13.6588 4.117709 32.955507 -2.871232
2007-06-01 11:47:57 51°38.853 2°42.416 13.6479 4.118124 32.956929 -2.871232
2007-06-01 11:48:57 51°38.847 2°42.491 13.6532 4.116983 32.957396 -2.871232
2007-06-01 11:49:57 51°38.834 2°42.545 13.6495 4.116879 32.957231 -2.871232
2007-06-01 11:50:57 51°38.823 2°42.591 13.657 4.117294 32.95713 -2.871232
2007-06-01 11:51:57 51°38.812 2°42.641 13.6548 4.117502 32.955938 -2.871232
2007-06-01 11:52:58 51°38.78 2°42.697 13.669 4.117813 32.953389 -2.871232
2007-06-01 11:53:57 51°38.701 2°42.677 13.6627 4.118746 32.951072 -2.871232
2007-06-01 11:54:57 51°38.526 2°42.607 13.6742 4.117709 32.949419 -2.871232
2007-06-01 11:55:57 51°38.32 2°42.519 13.6733 4.118538 32.948459 -2.871232
2007-06-01 11:56:57 51°38.114 2°42.427 13.6779 4.118953 32.945318 -2.871232
2007-06-01 11:57:57 51°37.91 2°42.328 13.6832 4.118953 32.942276 -2.871232
2007-06-01 11:58:57 51°37.707 2°42.224 13.6842 4.118746 32.940424 -2.871232
2007-06-01 11:59:57 51°37.505 2°42.125 13.7287 4.119264 32.921499 -2.871232
2007-06-01 12:00:57 51°37.35 2°41.924 13.7188 4.118537 32.88393 -2.871232
2007-06-01 12:01:57 51°37.319 2°41.608 13.7168 4.120093 32.904617 -2.871232
2007-06-01 12:02:57 51°37.339 2°41.289 13.6893 4.118538 32.914264 -2.871232
2007-06-01 12:03:57 51°37.345 2°40.967 13.7038 4.118953 32.915687 -2.871232
2007-06-01 12:04:57 51°37.349 2°40.643 13.8786 4.119678 32.901677 -2.871232
2007-06-01 12:05:57 51°37.356 2°40.314 13.7483 4.120818 32.862625 -2.871232
2007-06-01 12:06:57 51°37.364 2°39.98 13.7126 4.120508 32.901492 -2.871232
2007-06-01 12:07:57 51°37.371 2°39.642 13.7319 4.120093 32.905375 -2.871232
2007-06-01 12:08:58 51°37.385 2°39.297 13.6973 4.121752 32.920927 -2.871232
2007-06-01 12:09:57 51°37.397 2°38.964 13.7059 4.120716 32.94965 -2.871232
2007-06-01 12:10:57 51°37.41 2°38.625 13.6273 4.119679 32.973111 -2.871232
2007-06-01 12:11:57 51°37.421 2°38.287 13.5863 4.117813 32.985388 -2.871232
2007-06-01 12:12:57 51°37.432 2°37.95 13.5453 4.115947 33.002273 -2.871232
2007-06-01 12:13:57 51°37.442 2°37.613 13.5184 4.112318 32.996521 -2.871232
2007-06-01 12:14:57 51°37.45 2°37.275 13.494 4.108274 32.994698 -2.871232
2007-06-01 12:15:57 51°37.46 2°36.934 13.5149 4.106407 32.98179 -2.871232
2007-06-01 12:16:57 51°37.47 2°36.593 13.52 4.107548 32.991251 -2.871232
2007-06-01 12:17:58 51°37.479 2°36.251 13.519 4.110555 33.014386 -2.871232
2007-06-01 12:18:57 51°37.47 2°35.924 13.5438 4.114288 33.031004 -2.871232
2007-06-01 12:19:57 51°37.459 2°35.594 13.5908 4.118125 33.040121 -2.871232
2007-06-01 12:20:57 51°37.449 2°35.266 13.5603 4.12051 33.048472 -2.871232
2007-06-01 12:21:57 51°37.429 2°34.945 13.5382 4.119577 33.061548 -2.871232
2007-06-01 12:22:57 51°37.332 2°34.67 13.5231 4.119059 33.084497 -2.871232
2007-06-01 12:23:57 51°37.205 2°34.426 13.5421 4.118955 33.074364 -2.871232
2007-06-01 12:24:58 51°37.081 2°34.182 13.5631 4.119577 33.068443 -2.871232
2007-06-01 12:25:57 51°36.965 2°33.935 13.59 4.119992 33.073693 -2.871232
2007-06-01 12:26:57 51°36.8 2°33.768 13.5878 4.122585 33.077765 -2.871232
2007-06-01 12:27:57 51°36.604 2°33.679 13.5832 4.124762 33.089609 -2.871232
2007-06-01 12:28:58 51°36.411 2°33.561 13.5726 4.123518 33.074635 -2.871232
2007-06-01 12:29:57 51°36.224 2°33.444 13.5928 4.124555 33.093115 -2.871232
2007-06-01 12:30:57 51°36.032 2°33.332 13.5782 4.125281 33.089656 -2.871232
2007-06-01 12:31:57 51°35.84 2°33.219 13.6086 4.125903 33.091398 -2.871232
2007-06-01 12:32:57 51°35.649 2°33.105 13.5874 4.126733 33.100359 -2.871232
2007-06-01 12:33:58 51°35.455 2°32.986 13.5896 4.127873 33.096018 -2.871232
2007-06-01 12:34:57 51°35.268 2°32.874 13.608 4.128288 33.105859 -2.871232
2007-06-01 12:35:57 51°35.076 2°32.764 13.5804 4.128599 33.104814 -2.871232
2007-06-01 12:36:57 51°34.882 2°32.661 13.5911 4.128392 33.105256 -2.871232
2007-06-01 12:37:57 51°34.688 2°32.563 13.6096 4.128496 33.106184 -2.871232
2007-06-01 12:38:57 51°34.494 2°32.464 13.5948 4.128599 33.094093 -2.871232
2007-06-01 12:39:57 51°34.299 2°32.367 13.6169 4.128081 33.09328 -2.871232
2007-06-01 12:40:57 51°34.103 2°32.267 13.6329 4.127769 33.086669 -2.871232
2007-06-01 12:41:57 51°33.908 2°32.168 13.6288 4.128288 33.081361 -2.871232
2007-06-01 12:42:58 51°33.71 2°32.062 13.6312 4.129014 33.081736 -2.871232
2007-06-01 12:43:57 51°33.517 2°31.96 13.641 4.129221 33.076709 -2.871232
2007-06-01 12:44:58 51°33.319 2°31.852 13.6249 4.129428 33.077799 -2.871232
2007-06-01 12:45:57 51°33.127 2°31.75 13.6547 4.129117 33.075781 -2.871232
2007-06-01 12:46:57 51°32.933 2°31.643 13.6455 4.130569 33.075769 -2.871232
2007-06-01 12:47:57 51°32.738 2°31.534 13.6348 4.130154 33.07741 -2.871232
2007-06-01 12:48:57 51°32.543 2°31.429 13.616 4.129221 33.082061 -2.871232
2007-06-01 12:49:58 51°32.346 2°31.32 13.61 4.128495 33.087807 -2.871232
2007-06-01 12:50:57 51°32.144 2°31.327 13.583 4.127355 33.089845 -2.871232
2007-06-01 12:51:57 51°31.948 2°31.466 13.5808 4.125696 33.091073 -2.871232
2007-06-01 12:52:57 51°31.754 2°31.625 13.5976 4.125073 33.087799 -2.871232
2007-06-01 12:53:58 51°31.552 2°31.768 13.6379 4.125903 33.081443 -2.871232
2007-06-01 12:54:58 51°31.355 2°31.91 13.698 4.131399 33.077836 -2.871232
2007-06-01 12:55:57 51°31.164 2°32.05 13.6618 4.137102 33.100536 -2.871232
2007-06-01 12:56:58 51°30.969 2°32.185 13.7184 4.133162 33.123439 -2.871232
2007-06-01 12:57:57 51°30.781 2°32.319 13.826 4.133886 33.009353 -2.871232
2007-06-01 12:58:58 51°30.587 2°32.458 13.8816 4.137411 32.976236 -2.871232
2007-06-01 12:59:57 51°30.399 2°32.592 13.9081 4.141041 32.953251 -2.871232
2007-06-01 13:00:58 51°30.204 2°32.734 13.9586 4.142492 32.945744 -2.871232
2007-06-01 13:01:57 51°30.014 2°32.875 13.9838 4.145914 32.933099 -2.871232
2007-06-01 13:02:57 51°29.833 2°33.06 13.9803 4.146744 32.923122 -2.871232
2007-06-01 13:03:58 51°29.744 2°33.409 14.0167 4.14581 32.911083 -2.871232
2007-06-01 13:04:58 51°29.724 2°33.807 13.9167 4.146432 32.903801 -2.871232
2007-06-01 13:05:58 51°29.702 2°34.201 13.8185 4.138448 32.943066 -2.871232
2007-06-01 13:06:57 51°29.688 2°34.581 13.7901 4.133056 32.954902 -2.871232
2007-06-01 13:07:58 51°29.679 2°34.966 13.7959 4.130567 32.951692 -2.871232
2007-06-01 13:08:57 51°29.672 2°35.339 13.8507 4.129426 32.919567 -2.871232
2007-06-01 13:09:58 51°29.664 2°35.727 13.8871 4.130566 32.888885 -2.871232
2007-06-01 13:10:57 51°29.655 2°36.104 13.9699 4.132329 32.875116 -2.871232
2007-06-01 13:11:57 51°29.645 2°36.487 14.1006 4.139483 32.827987 -2.871232
2007-06-01 13:12:58 51°29.632 2°36.878 14.0889 4.143423 32.791682 -2.871232
2007-06-01 13:13:58 51°29.616 2°37.266 14.089 4.141142 32.782738 -2.871232
2007-06-01 13:14:58 51°29.596 2°37.652 14.0927 4.141038 32.776588 -2.871232
2007-06-01 13:15:57 51°29.46 2°37.909 14.0704 4.140623 32.785634 -2.871232
2007-06-01 13:16:58 51°29.255 2°38.016 14.0586 4.13886 32.783516 -2.871232
2007-06-01 13:17:57 51°29.059 2°38.119 14.0829 4.137304 32.763778 -2.871232
2007-06-01 13:18:57 51°28.857 2°38.203 14.055 4.136163 32.742486 -2.871232
2007-06-01 13:19:58 51°28.649 2°38.289 13.9931 4.129838 32.749354 -2.871232
2007-06-01 13:20:57 51°28.448 2°38.375 14.0281 4.126519 32.725967 -2.871232
2007-06-01 13:21:58 51°28.244 2°38.463 14.0782 4.12237 32.65267 -2.871232
2007-06-01 13:22:57 51°28.047 2°38.551 14.1151 4.131704 32.702338 -2.871232
2007-06-01 13:23:58 51°27.844 2°38.643 14.1433 4.134918 32.686006 -2.871232
2007-06-01 13:24:57 51°27.648 2°38.733 14.1639 4.134399 32.674732 -2.871232
2007-06-01 13:25:58 51°27.447 2°38.824 14.2409 4.137199 32.662244 -2.871232
2007-06-01 13:26:57 51°27.251 2°38.909 14.232 4.141036 32.64483 -2.871232
2007-06-01 13:27:58 51°27.047 2°38.999 14.1983 4.137821 32.63062 -2.871232
2007-06-01 13:28:58 51°26.848 2°39.091 14.2382 4.135021 32.621537 -2.871232
2007-06-01 13:29:58 51°26.646 2°39.173 14.3046 4.138339 32.612218 -2.871232
2007-06-01 13:30:58 51°26.447 2°39.256 14.6293 4.14176 32.530835 -2.871232
2007-06-01 13:31:57 51°26.25 2°39.337 14.6617 4.15192 32.396557 -2.871232
2007-06-01 13:32:58 51°26.046 2°39.424 14.64 4.153787 32.409178 -2.871232
2007-06-01 13:33:57 51°25.851 2°39.518 14.5547 4.152128 32.412187 -2.871232
2007-06-01 13:34:58 51°25.655 2°39.66 14.5488 4.148395 32.44232 -2.871232
2007-06-01 13:35:57 51°25.467 2°39.804 14.5031 4.146217 32.431339 -2.871232
2007-06-01 13:36:58 51°25.273 2°39.958 14.4482 4.143314 32.452013 -2.871232
2007-06-01 13:37:58 51°25.08 2°40.108 14.4267 4.140514 32.457539 -2.871232
2007-06-01 13:38:57 51°24.887 2°40.234 14.3796 4.136366 32.457874 -2.871232
2007-06-01 13:39:58 51°24.682 2°40.333 14.3705 4.131077 32.447484 -2.871232
2007-06-01 13:40:57 51°24.482 2°40.407 14.3989 4.129003 32.419769 -2.871232
2007-06-01 13:41:58 51°24.274 2°40.47 14.4434 4.130558 32.404822 -2.871232
2007-06-01 13:42:57 51°24.074 2°40.533 14.4562 4.13481 32.410566 -2.871232
2007-06-01 13:43:58 51°23.868 2°40.613 14.4652 4.136469 32.415571 -2.871232
2007-06-01 13:44:58 51°23.665 2°40.687 14.4844 4.138336 32.419464 -2.871232
2007-06-01 13:45:58 51°23.462 2°40.749 14.5104 4.139995 32.419349 -2.871232
2007-06-01 13:46:58 51°23.256 2°40.788 14.5558 4.142276 32.413718 -2.871232
2007-06-01 13:47:57 51°23.054 2°40.822 14.5695 4.145594 32.404025 -2.871232
2007-06-01 13:48:58 51°22.843 2°40.846 14.7296 4.147772 32.392425 -2.871232
2007-06-01 13:49:58 51°22.634 2°40.854 14.656 4.155549 32.350482 -2.871232
2007-06-01 13:50:58 51°22.425 2°40.862 14.6015 4.147356 32.358272 -2.871232
2007-06-01 13:51:58 51°22.217 2°40.872 14.6065 4.14103 32.332948 -2.871232
2007-06-01 13:52:58 51°22.009 2°40.884 14.6202 4.140201 32.316279 -2.871232
2007-06-01 13:53:58 51°21.801 2°40.894 14.6358 4.139267 32.298718 -2.871232
2007-06-01 13:54:57 51°21.598 2°40.907 14.6596 4.138748 32.278258 -2.871232
2007-06-01 13:55:58 51°21.388 2°40.919 14.7378 4.13937 32.24749 -2.871232
2007-06-01 13:56:57 51°21.186 2°40.93 14.7963 4.142273 32.212812 -2.871232
2007-06-01 13:57:58 51°20.977 2°40.94 14.8309 4.144554 32.187975 -2.871232
2007-06-01 13:58:57 51°20.782 2°41.026 14.8618 4.145902 32.171637 -2.871232
2007-06-01 13:59:58 51°20.629 2°41.281 14.9076 4.148494 32.164664 -2.871232
2007-06-01 14:00:58 51°20.543 2°41.625 14.9287 4.149323 32.136026 -2.871232
2007-06-01 14:01:58 51°20.462 2°41.973 14.9264 4.146626 32.099858 -2.871232
2007-06-01 14:02:58 51°20.371 2°42.319 14.9449 4.143826 32.072102 -2.871232
2007-06-01 14:03:57 51°20.282 2°42.656 14.9736 4.143514 32.050873 -2.871232
2007-06-01 14:04:58 51°20.188 2°43.002 14.962 4.142581 32.025013 -2.871232
2007-06-01 14:05:57 51°20.095 2°43.335 14.9625 4.13781 31.996665 -2.871232
2007-06-01 14:06:58 51°19.99 2°43.667 14.9725 4.133973 31.954325 -2.871232
2007-06-01 14:07:58 51°19.884 2°43.987 14.9634 4.131587 31.928078 -2.871232
2007-06-01 14:08:58 51°19.777 2°44.31 14.9808 4.127231 31.893363 -2.871232
2007-06-01 14:09:58 51°19.673 2°44.636 14.989 4.127542 31.886125 -2.871232
2007-06-01 14:10:58 51°19.571 2°44.966 15.033 4.130342 31.901046 -2.871232
2007-06-01 14:11:58 51°19.468 2°45.296 15.1572 4.127437 31.790611 -2.871232
2007-06-01 14:12:57 51°19.374 2°45.629 15.1029 4.128785 31.759302 -2.871232
2007-06-01 14:13:58 51°19.278 2°45.973 15.0889 4.128681 31.793561 -2.871232
2007-06-01 14:14:57 51°19.186 2°46.303 15.0511 4.124222 31.771432 -2.871232
2007-06-01 14:15:58 51°19.09 2°46.644 15.0161 4.116133 31.727931 -2.871232
2007-06-01 14:16:58 51°19.008 2°46.989 14.985 4.105556 31.672109 -2.871232
2007-06-01 14:17:58 51°18.927 2°47.333 14.9701 4.099956 31.642192 -2.871232
2007-06-01 14:18:58 51°18.846 2°47.677 14.9998 4.096845 31.621737 -2.871232
2007-06-01 14:19:58 51°18.763 2°48.017 15.1132 4.099541 31.609843 -2.871232
2007-06-01 14:20:58 51°18.678 2°48.353 15.1556 4.097465 31.497691 -2.871232
2007-06-01 14:21:57 51°18.592 2°48.682 15.1625 4.09228 31.437957 -2.871232
2007-06-01 14:22:58 51°18.497 2°49.017 15.1483 4.085539 31.374679 -2.871232
2007-06-01 14:23:58 51°18.405 2°49.346 15.1667 4.080665 31.332953 -2.871232
2007-06-01 14:24:58 51°18.308 2°49.671 15.2215 4.079835 31.30925 -2.871232
2007-06-01 14:25:58 51°18.212 2°49.997 15.2632 4.085434 31.312227 -2.871232
2007-06-01 14:26:58 51°18.116 2°50.324 15.2892 4.091241 31.329393 -2.871232
2007-06-01 14:27:58 51°18.024 2°50.653 15.2732 4.096633 31.363007 -2.871232
2007-06-01 14:28:58 51°17.929 2°50.978 15.2404 4.106382 31.474645 -2.871232
2007-06-01 14:29:58 51°17.831 2°51.3 15.2307 4.114471 31.561185 -2.871232
2007-06-01 14:30:58 51°17.717 2°51.605 15.2534 4.118723 31.594777 -2.871232
2007-06-01 14:31:58 51°17.573 2°51.869 15.2832 4.120382 31.585993 -2.871232
2007-06-01 14:32:58 51°17.406 2°52.095 15.3352 4.118619 31.539654 -2.871232
2007-06-01 14:33:58 51°17.215 2°52.26 15.4002 4.124737 31.546795 -2.871232
2007-06-01 14:34:58 51°17.018 2°52.395 15.412 4.131685 31.563773 -2.871232
2007-06-01 14:35:58 51°16.82 2°52.538 15.4181 4.122973 31.479885 -2.871232
2007-06-01 14:36:58 51°16.624 2°52.683 15.457 4.121936 31.466223 -2.871232
2007-06-01 14:37:57 51°16.43 2°52.818 15.5855 4.125461 31.455551 -2.871232
2007-06-01 14:38:58 51°16.226 2°52.952 15.6515 4.09891 31.111407 -2.871232
2007-06-01 14:39:58 51°16.027 2°53.089 15.6462 4.090095 31.011815 -2.871232
2007-06-01 14:40:58 51°15.829 2°53.236 15.6691 4.087606 30.988755 -2.871232
2007-06-01 14:41:57 51°15.637 2°53.391 15.6808 4.086051 30.966843 -2.871232
2007-06-01 14:42:57 51°15.442 2°53.552 15.6724 4.077651 30.888499 -2.871232
2007-06-01 14:43:57 51°15.246 2°53.711 15.7526 4.063133 30.75927 -2.871232
2007-06-01 14:44:58 51°15.046 2°53.864 15.838 4.064895 30.692672 -2.871232
2007-06-01 14:45:57 51°14.857 2°54.02 15.835 4.075989 30.731379 -2.871232
2007-06-01 14:46:57 51°14.73 2°54.304 15.8366 4.087293 30.838396 -2.871232
2007-06-01 14:47:57 51°14.593 2°54.586 15.81 4.085115 30.838792 -2.871232
2007-06-01 14:48:58 51°14.449 2°54.866 15.911 4.082419 30.810096 -2.871232
2007-06-01 14:49:58 51°14.316 2°55.136 16.1276 4.044154 30.36808 -2.871232
2007-06-01 14:50:58 51°14.198 2°55.347 16.134 3.905126 29.085409 -2.871232
2007-06-01 14:51:58 51°14.095 2°55.439 16.1291 3.806663 28.270764 -2.871232
2007-06-01 14:52:58 51°13.998 2°55.505 17.8474 3.786559 28.121837 -2.871232
2007-06-01 14:53:58 51°13.897 2°55.573 17.3465 3.932897 28.803056 -2.871232
2007-06-01 14:54:59 51°13.797 2°55.655 16.9442 4.223245 30.888147 -2.871232
2007-06-01 14:55:59 51°13.725 2°55.77 16.995 4.298767 31.371757 -2.871232
2007-06-01 14:56:59 51°13.672 2°55.873 16.9109 4.330098 31.503575 -2.871232
2007-06-01 14:57:59 51°13.626 2°55.964 16.9187 4.342546 31.436459 -2.871232
2007-06-01 14:58:59 51°13.606 2°56.045 17.0116 4.320029 31.185311 -2.871232